www.pogodaiklimat.ru

Погода и климат >> Архив погоды >> Вьетнам >> Коншон


ПОГОДА в Коншоне

  • Прогноз погоды в Коншоне
  • Монитор погоды в Коншоне

АРХИВ ПОГОДЫ в Коншоне

Время (UTC), дата Ветер
(напр.,м/с)
 
Видим.   Явления Облачность Т
(С)
Тd
(С)
f
(%)
Тe
(С)
Тes
(С)
Комфортность P
(гПа)
Po
(гПа)
Тmin
(С)
Tmax
(С)
R
(мм)
R24
(мм)
S
(см)
12 10.08 Ю 4 20 км {ливн. осадки} 9/9 300 м
[Cb cap]
+28.5 +24.1 77 +40 +40 очень
душно
1007.1 1006.0 +2.9 0.1 56
15 10.08 ЮЗ 2 20 км 9/5 300 м
[Cb cap Cs]
+28.5 +24.3 78 +40 +40 очень
душно
1009.9 1008.8
18 10.08 Ю 4 20 км 9/9 300 м
[Cb cap]
+28.6 1008.1 1007.0
21 10.08 З 6 10 км в посл. час ливневой дождь 10/10 300 м
[Cb cap]
+26.2 +22.3 79 +34 +34 очень
душно
1008.0 1006.9
00 11.08 Ю 2 20 км {ливн. осадки} 9/9 600 м
[Cb cap]
+27.2 +23.6 81 +37 +37 очень
душно
1009.3 1008.3 +2.5 4
03 11.08 Ю 2 20 км 9/6 300 м
[Cb cap Cs]
+29.6 +24.4 74 +42 +48 опасность
перегрева
1010.2 1009.1
06 11.08 ЮВ 4 20 км 9/5
[Cb cap Cs]
+30.4 1008.5 1007.4 4
09 11.08 Ю 4 20 км 8/3 600 м
[Cu med, cong Cs]
+30.4 +24.7 72 +43 +46 опасность
перегрева
1007.0 1005.9
12 11.08 Ю 4 20 км 9/9 300 м
[Cb cap]
+29.0 1007.6 1006.5 +30.7 4
15 11.08 ЮВ 2 20 км 9/5 300 м
[Cb cap Cs]
+29.0 +24.7 78 +41 +41 опасность
перегрева
1009.7 1008.6
18 11.08 Ю 4 20 км 9/9 300 м
[Cb cap]
+28.6 1008.5 1007.4
21 11.08 Ю 2 20 км 9/3 300 м
[Cb cap Cs]
+28.4 +24.3 78 +40 +40 очень
душно
1008.5 1007.4
00 12.08 ЮЗ 2 20 км 9/5 300 м
[Cb cap Cs]
+28.7 1010.2 1009.1 +28.0
03 12.08 Ю 2 20 км 9/5 300 м
[Cb cap Cs]
+29.6 +25.0 76 +42 +50 опасность
перегрева
1010.9 1009.8
06 12.08 Ю 4 20 км 9/1 600 м
[Cu hum Cs]
+30.8 1009.5 1008.4
09 12.08 Ю 4 20 км 9/3 300 м
[Cb cap Cs]
+30.8 +25.1 72 +45 +47 опасность
перегрева
1008.2 1007.1
12 12.08 Ю 2 20 км 9/4 300 м
[Cb cap Cs]
+28.8 1008.7 1007.6 +31.0
15 12.08 ЮЗ 2 20 км 9/3 300 м
[Cb cap Cs]
+28.0 +24.5 81 +39 +39 очень
душно
1009.6 1008.5
18 12.08 штиль 0 20 км 9/3
[Cb cap Cs]
+27.4 1009.6 1008.5
21 12.08 штиль 0 20 км 8/1 300 м
[Cu hum Cs]
+27.6 +23.8 80 +38 +38 очень
душно
1009.2 1008.1
00 13.08 штиль 0 20 км 9/3 300 м
[Cu med, cong Cs]
+28.0 1009.8 1008.7 +26.9
03 13.08 штиль 0 20 км 9/3 300 м
[Cu med, cong Cs]
+31.0 +24.4 68 +43 +57 опасность
перегрева
1010.7 1009.6
06 13.08 штиль 0 20 км 9/4
[Cu med, cong Cs]
+31.6 1009.5 1008.4
09 13.08 штиль 0 20 км 9/4 300 м
[Cu med, cong Cs]
+30.8 +24.7 70 +44 +47 опасность
перегрева
1008.5 1007.4
12 13.08 штиль 0 20 км 9/4 300 м
[Cu med, cong Cs]
+29.2 1009.2 1008.1 +32.0
15 13.08 ЮЗ 2 20 км 9/3 300 м
[Cu med, cong Cs]
+28.8 +25.1 80 +42 +42 опасность
перегрева
1010.2 1009.1
18 13.08 ЮЗ 2 20 км 9/3 300 м
[Cu med, cong Cs]
+28.2 1009.7 1008.6
21 13.08 штиль 0 20 км 9/4 300 м
[Cu med, cong Cs]
+28.1 +24.9 83 +40 +40 очень
душно
1009.9 1008.8
00 14.08 штиль 0 20 км 9/4 300 м
[Cu med, cong Cs]
+27.8 1010.9 1009.8 +26.6
03 14.08 З 2 20 км 9/3 600 м
[Cu med, cong Cs]
+30.6 +24.0 68 +42 +52 опасность
перегрева
1011.7 1010.6
06 14.08 ЮЗ 2 20 км 9/6
[Cu med, cong Cs]
+31.2 1010.1 1009.0
09 14.08 ЮЗ 4 20 км 9/6 300 м
[Cu med, cong Cs]
+30.4 +24.4 70 +42 +44 опасность
перегрева
1008.7 1007.6
12 14.08 ЮЗ 2 20 км {ливн. осадки} 9/9 <50 м
[Cb cap]
+26.8 +22.9 79 +36 +36 очень
душно
1009.7 1008.6 +3.1 1 1
15 14.08 штиль 0 20 км 9/3 300 м
[Cb cap Cs]
+27.9 +24.3 81 +39 +39 очень
душно
1011.7 1010.6
18 14.08 З 4 20 км 9/6
[Cb cap Cs]
+28.6 1010.9 1009.8
21 14.08 Ю 2 20 км 8/8 300 м
[Cb cap]
+28.4 +24.6 80 +40 +40 очень
душно
1010.8 1009.7
00 15.08 Ю 2 20 км 9/5 300 м
[Cb cap Cs]
+28.6 1011.5 1010.4 +26.6
03 15.08 ЮЗ 4 20 км 9/6 300 м
[Cu med, cong Cs]
+30.5 +24.6 71 +43 +47 опасность
перегрева
1011.9 1010.8
06 15.08 ЮЗ 4 20 км 9/9 300 м
[Cu med, cong]
+31.0 1010.2 1009.1
09 15.08 З 6 20 км 8/8 300 м
[Cu med, cong]
+29.6 +24.4 74 +42 +42 опасность
перегрева
1008.7 1007.6
12 15.08 ЮЗ 4 10 км в посл. час ливневой дождь 9/9 300 м
[Cb cap]
+28.6 +23.6 74 +39 +39 очень
душно
1009.2 1008.1 +3.1 0.3 0.3
15 15.08 ЮЗ 2 10 км 9/5 300 м
[Cb cap Cs]
+29.0 +24.4 76 +41 +41 опасность
перегрева
1010.7 1009.6
18 15.08 ЮЗ 4 10 км 8/8 300 м
[Cb cap]
+29.0 1010.1 1009.0
21 15.08 штиль 0 20 км 9/5 300 м
[Cb cap Cs]
+28.8 +24.2 76 +40 +40 очень
душно
1009.6 1008.5
00 16.08 ЮЗ 4 20 км 9/5 300 м
[Cb cap Cs]
+28.8 1010.3 1009.2 +28.0
03 16.08 ЮЗ 2 20 км 9/9 300 м
[Cb cap]
+29.8 +24.6 74 +42 +44 опасность
перегрева
1011.7 1010.6
06 16.08 ЮЗ 2 20 км 9/3 300 м
[Cu med, cong Cs]
+31.0 1010.3 1009.2
09 16.08 Ю 4 20 км 9/4 300 м
[Cb cap Cs]
+30.2 +24.5 72 +43 +45 опасность
перегрева
1009.2 1008.1
12 16.08 ЮЗ 4 20 км 9/4 300 м
[Cb cap Cs]
+29.2 1009.8 1008.7 +31.5
15 16.08 ЮЗ 2 20 км 8/3 300 м
[Cb cap Cs]
+29.0 +24.2 75 +40 +40 очень
душно
1010.8 1009.7
18 16.08 ЮЗ 2 20 км 9/3
[Cb cap Cs]
+28.8 1010.7 1009.6
21 16.08 ЮЗ 4 20 км 9/4 300 м
[Cu med, cong Cs]
+29.0 +23.6 73 +40 +40 очень
душно
1010.1 1009.0
00 17.08 штиль 0 20 км 9/3 300 м
[Cu med, cong Cs]
+29.2 1011.4 1010.3 +28.2
03 17.08 штиль 0 20 км 8/1 300 м
[Cu hum Cs]
+31.0 +24.4 68 +43 +61 опасность
перегрева
1012.3 1011.2
06 17.08 штиль 0 20 км 9/4
[Cu med, cong Cs]
+31.5 1011.1 1010.0
09 17.08 ЮЗ 4 20 км 9/6 300 м
[Cu med, cong Cs]
+30.5 +24.6 71 +43 +44 опасность
перегрева
1010.0 1008.9

 

Местоположение метеостанции Коншон (Вьетнам): широта 8.68 долгота 106.60 высота над уровнем моря 9 м.

В архиве по умолчанию представлена погода в Коншоне за последнюю неделю. Архивные данные за месяц целиком и за предыдущие месяцы, начиная с января 2011 года, Вы можете получить, выбрав интересующий диапазон дат из раскрывающегося списка и нажав кнопку "Ввод!".


*Определитесь, кто Вы:
робот инопланетянин человек

Внимание! Время в таблицах - всемирное. Для получения местного времени необходимо прибавить поправку, которая равна 7 ч.

Смотрите также архив погоды в соседних городах и на ближайших метеорологических станциях:

Погода в Камау (Вьетнам) (169 км)
Погода в Хабе (Вьетнам) (220 км)
Погода в Ратьзя (Вьетнам) (222 км)
Погода в Фантхьете (Вьетнам) (299 км)
Погода на Фукуоке (Вьетнам) (337 км)
Погода на Тхочу (Вьетнам) (351 км)
Погода в Хуентране (Вьетнам) (434 км)
Погода в Мерсинге (Малайзия) (472 км)
Погода в Буонметхуоте (Вьетнам) (473 км)
Погода в Нячанге (Вьетнам) (486 км)

Пояснения к столбцам:

Ветер - указаны скорость ветра в м/с - средняя за 10 мин, порывы в срок и между сроками (в фигурных скобках) и направление, откуда дует ветер: С - северный, СВ - северо-восточный, В - восточный, ЮВ - юго-восточный, Ю - южный, ЮЗ - юго-западный, З - западный, СЗ - северо-западный.
Видимость - горизонтальная дальность видимости в метрах или километрах. При видимости от 1 до 10 км при отсутствии осадков обычно наблюдается дымка, при ухудшении видимости до 1 км и менее - туман. В сухую погоду видимость может ухудшаться дымом, пылью или мглою.
Явления - указаны атмосферные явления, наблюдавшиеся в срок или в последний час перед сроком; фигурными скобками обозначены явления, наблюдавшиеся между сроками (за 1-3 часа до срока); квадратными скобками обозначены град или гололедные отложения с указанием их диаметра в мм.
Облачность - указаны через наклонную черту общая и нижняя облачность в баллах и высота нижней границы облаков в метрах; квадратными скобками обозначены формы облаков: Ci - перистые, Cs - перисто-слоистые, Cc - перисто-кучевые, Ac - высококучевые, As - высокослоистые, Sc - слоисто-кучевые, Ns - слоисто-дождевые, Cu - кучевые, Cb - кучево-дождевые. Подробнее классификацию облаков см. в Атласе облаков (PDF).
T - Температура воздуха - температура, измеренная на высоте 2 м над землей.
Td - Температура точки росы - температура, при понижении до которой содержащийся в воздухе водяной пар достигнет насыщения.
f - Относительная влажность воздуха - влажноcть воздуха, измеренная на высоте 2 м над землей.
Te - Эффективная температура - температура, которую ощущает одетый по сезону человек в тени. Характеристика душности погоды. При расчете учитывается влияние влажности воздуха и скорости ветра на теплоощущения человека.
Tes - Эффективная температура на солнце - температура, которую ощущает человек, с поправкой на солнечный нагрев. Характеристика знойности погоды. Зависит от высоты солнца над горизонтом, облачности и скорости ветра. Ночью, в пасмурную погоду, а также при ветре 12 м/с и более поправка равна нулю.
P - Атмосферное давление - приведенное к уровню моря атмосферное давление.
Po - Атмосферное давление - измеренное на уровне метеостанции атмосферное давление.
Tmin - Минимальная температура - минимум температуры воздуха на высоте 2 м над землей.
Tmax - Максимальная температура - максимум температуры воздуха на высоте 2 м над землей.
R - Количество осадков - Количество выпавших осадков за период времени, мм. При наведении курсора мыши на число - период времени, за который выпало указанное количество осадков.
R24 - Количество осадков - Количество выпавших осадков за 24 часа, мм.
S - Снежный покров - Высота снежного покрова, см. При наведении курсора мыши на число - состояние снежного покрова и степень покрытия местности в баллах.